Погода в Контокали

Греция     39°38′41″N   19°51′08″E
темп.,
°C
ветер,
м/с
пор.,
м/с
влажн.,
%
обл.,
%
осадки,
мм/ч
давл.,
гПа
погр.,
м
21 октября, чт
чт2100:00+16зсз11690 0.0 1026294
03:00+16ю11720 0.0 1025248
06:00+15ююв12770 0.0 1024236
09:00+15юв23791 0.0 1024186
12:00+19юв456832 0.0 1024972
15:00+18юв357396 0.1 1022789
18:00+18юв347875 0.4 1021473
21:00+17юв33878 0.9 1021135
22 октября, пт
пт2200:00+17юв338722 0.4 1020124
03:00+17вюв23863 0.6 1020106
06:00+16вюв34885 0.0 1019130
09:00+17юв34875 0.1 1020163
12:00+20юв347423 0.2 1021771
15:00+21ююв346910 0.5 1020883
18:00+20юв347773 0.4 1020559
21:00+18юв3586100 0.5 1020216
23 октября, сб
сб2300:00+18юв358899 0.1 1021217
03:00+18юв3390100 0.6 1020129
06:00+18юв3490100 0.1 1020155
09:00+18юв238961 0.1 1020191
12:00+20юв347683 0.1 1021708
15:00+21ююв237243 0.4 1020699
18:00+21ю2278100 0.1 1020216
21:00+19юв228797 0.3 102183
24 октября, вс
вс2400:00+18вюв1186100 0.1 102261
03:00+19юв118495 0.1 102152
06:00+18ююв1183100 0.3 102147
09:00+18юз0087100 1.9 102156
12:00+18ююз0189100 1.7 1022153
15:00+18св2389100 3.6 1021268
18:00+18ююз1186100 0.5 102166
21:00+18в2284100 1.0 1021111
25 октября, пн
пн2500:00+18ююв1180100 0.0 102074
03:00+18юв2381100 0.1 1020169
06:00+18в2274100 0.0 1018142
09:00+17вюв3472100 0.0 1019204
12:00+17в3470100 0.1 1020259
15:00+16в4669100 0.1 1020313
18:00+16вюв3469100 0.4 1020229
21:00+15в4573100 1.0 1020217